Weather History for KBTL - May, 2013

Change the Weather History Date:

Saturday, May 18, 2013

  Actual Average Record
Temperature  
Mean Temperature 69 °F 59 °F  
Max Temperature 81 °F 71 °F 89 °F (1998)
Min Temperature 56 °F 46 °F 33 °F (2002)
Degree Days  
Heating Degree Days 0 7  
Month to date heating degree days 89 171  
Since 1 July heating degree days 6316 6560  
Cooling Degree Days 4 1  
Month to date cooling degree days 22 12  
Year to date cooling degree days 22 19  
Growing Degree Days 18 (Base 50)    
Moisture  
Dew Point 47 °F    
Average Humidity 47    
Maximum Humidity 55    
Minimum Humidity 39    
Precipitation  
Precipitation 0.00 in 0.13 in 1.83 in (2000)
Month to date precipitation 0.39 2.11  
Year to date precipitation 11.53 9.82  
Sea Level Pressure  
Sea Level Pressure 30.07 in    
Wind  
Wind Speed 6 mph (SE)    
Max Wind Speed 14 mph    
Max Gust Speed 18 mph    
Visibility 10 miles    
Events      
T = Trace of Precipitation, MM = Missing Value Source: NWS Daily Summary

Daily Weather History Graph

Daily Weather History Graph

Search for Another Location

Airport or City:

Trip Planner

Search our weather history database for the weather conditions in past years. The results will help you decide how hot, cold, wet, or windy it might be!

Date:

Astronomy

May. 18, 2013 Rise Set
Actual Time 6:16 AM EDT 8:58 PM EDT
Civil Twilight 5:44 AM EDT 9:31 PM EDT
Nautical Twilight 5:03 AM EDT 10:12 PM EDT
Astronomical Twilight 4:16 AM EDT 10:59 PM EDT
Moon 1:53 PM EDT (5/18) 2:16 AM EDT (5/18)
Length of Visible Light 15h 47m
Length of Day
14h 42m
First Quarter, 55% of the Moon is Illuminated
May 18
First Quarter
May 25
Full
May 31
Last Quarter
Jun 8
New
Jun 16
First Quarter

Hourly Weather History & Observations

Time (EDT) Temp. Heat Index Dew Point Humidity Pressure Visibility Wind Dir Wind Speed Gust Speed Precip Events Conditions
12:53 AM 62.1 °F - 41.0 °F 46% 30.11 in 10.0 mi ESE 9.2 mph - N/A   Clear
1:53 AM 61.0 °F - 39.9 °F 46% 30.10 in 10.0 mi ESE 8.1 mph - N/A   Clear
2:53 AM 59.0 °F - 39.0 °F 48% 30.10 in 10.0 mi ESE 8.1 mph - N/A   Clear
3:53 AM 57.9 °F - 37.0 °F 46% 30.10 in 10.0 mi ESE 8.1 mph - N/A   Clear
4:53 AM 57.0 °F - 37.0 °F 47% 30.10 in 10.0 mi ESE 5.8 mph - N/A   Clear
5:53 AM 55.9 °F - 37.9 °F 51% 30.12 in 10.0 mi East 4.6 mph - N/A   Overcast
6:53 AM 57.0 °F - 39.9 °F 53% 30.13 in 10.0 mi East 6.9 mph - N/A   Overcast
7:53 AM 57.0 °F - 41.0 °F 55% 30.13 in 10.0 mi East 6.9 mph - N/A   Mostly Cloudy
8:53 AM 60.1 °F - 42.1 °F 51% 30.12 in 10.0 mi East 6.9 mph - N/A   Scattered Clouds
9:53 AM 64.9 °F - 43.0 °F 45% 30.12 in 10.0 mi Variable 3.5 mph - N/A   Clear
10:53 AM 68.0 °F - 44.1 °F 42% 30.11 in 10.0 mi Calm Calm - N/A   Clear
11:53 AM 71.1 °F - 48.9 °F 45% 30.09 in 10.0 mi Calm Calm - N/A   Clear
12:53 PM 75.9 °F - 51.1 °F 42% 30.09 in 10.0 mi Variable 3.5 mph - N/A   Mostly Cloudy
1:53 PM 77.0 °F - 52.0 °F 42% 30.06 in 10.0 mi SSW 6.9 mph - N/A   Partly Cloudy
2:53 PM 78.8 °F - 53.6 °F 42% 30.06 in 10.0 mi Variable 5.8 mph - N/A   Overcast
3:53 PM 80.1 °F 80.0 °F 54.0 °F 40% 30.03 in 10.0 mi SSE 11.5 mph - N/A   Partly Cloudy
4:53 PM 81.0 °F 80.5 °F 54.0 °F 39% 30.01 in 10.0 mi South 9.2 mph - N/A   Scattered Clouds
5:53 PM 79.0 °F - 53.1 °F 40% 30.01 in 10.0 mi SSE 8.1 mph - N/A   Overcast
6:53 PM 78.1 °F - 53.1 °F 42% 30.01 in 10.0 mi SSE 5.8 mph - N/A   Overcast
7:53 PM 77.0 °F - 55.0 °F 47% 30.01 in 10.0 mi SE 5.8 mph - N/A   Overcast
8:53 PM 75.0 °F - 54.0 °F 48% 30.00 in 10.0 mi SE 5.8 mph - N/A   Partly Cloudy
9:53 PM 73.0 °F - 53.1 °F 49% 30.02 in 10.0 mi SE 8.1 mph - N/A   Clear
10:53 PM 69.1 °F - 50.0 °F 51% 30.03 in 10.0 mi SE 12.7 mph - N/A   Clear
11:53 PM 66.0 °F - 46.0 °F 48% 30.04 in 10.0 mi ESE 6.9 mph - N/A   Clear